WMT8FK LZKZ-LIRF

Flight info

Callsign WMT8FK
Flight time 1h 29m
Altitude 36000
Route KEKED DCT FOGRE DCT OSDUK DCT IRDIV DCT XAMIT/N0440F350 DCT OTRET DCT MOPUV
Aircraft A321/M-SDE3FGHIRWY/LB1

Departure

Time 2026-04-17 06:41
Airport Košice International Airport (LZKZ)

Arrival

Time 2026-04-17 08:10
Airport Rome–Fiumicino Leonardo da Vinci International Airport (LIRF)
Time Latitude Longitude Altitude Speed Heading
2026-04-17 06:10 48.67332 21.23850 758 ft 0 kts 233°
2026-04-17 06:35 48.67332 21.23849 757 ft 1 kts 233°
2026-04-17 06:35 48.67320 21.23854 752 ft 1 kts 147°
2026-04-17 06:35 48.67313 21.23879 755 ft 3 kts 110°
2026-04-17 06:35 48.67304 21.23931 754 ft 7 kts 102°
2026-04-17 06:36 48.67290 21.24016 755 ft 9 kts 104°
2026-04-17 06:36 48.67274 21.24116 754 ft 10 kts 103°
2026-04-17 06:36 48.67263 21.24188 757 ft 11 kts 103°
2026-04-17 06:36 48.67245 21.24304 755 ft 12 kts 103°
2026-04-17 06:37 48.67210 21.24412 755 ft 11 kts 144°
2026-04-17 06:37 48.67135 21.24408 759 ft 11 kts 193°
2026-04-17 06:37 48.67050 21.24378 760 ft 16 kts 193°
2026-04-17 06:37 48.66907 21.24325 757 ft 26 kts 194°
2026-04-17 06:38 48.66693 21.24252 758 ft 36 kts 192°
2026-04-17 06:38 48.66428 21.24161 756 ft 40 kts 193°
2026-04-17 06:38 48.66163 21.24068 756 ft 38 kts 193°
2026-04-17 06:38 48.65906 21.23982 757 ft 37 kts 192°
2026-04-17 06:39 48.65653 21.23893 753 ft 37 kts 193°
2026-04-17 06:39 48.65405 21.23807 756 ft 36 kts 193°
2026-04-17 06:39 48.65166 21.23722 755 ft 31 kts 193°
2026-04-17 06:39 48.65043 21.23671 756 ft 10 kts 204°
2026-04-17 06:40 48.64978 21.23638 756 ft 8 kts 184°
2026-04-17 06:40 48.64975 21.23660 756 ft 1 kts 37°
2026-04-17 06:40 48.64980 21.23660 754 ft 1 kts 11°
2026-04-17 06:40 48.64986 21.23662 754 ft 2 kts 11°
2026-04-17 06:41 48.65194 21.23730 752 ft 67 kts 13°
2026-04-17 06:41 48.65857 21.23961 755 ft 129 kts 13°
2026-04-17 06:41 48.66889 21.24320 887 ft 164 kts 12°
2026-04-17 06:41 48.67976 21.24693 1600 ft 160 kts 11°
2026-04-17 06:42 48.69076 21.25069 2324 ft 159 kts 12°
2026-04-17 06:42 48.70191 21.25462 2708 ft 174 kts 12°
2026-04-17 06:42 48.71443 21.25903 2933 ft 194 kts 12°
2026-04-17 06:42 48.72775 21.26376 3445 ft 198 kts 12°
2026-04-17 06:43 48.74137 21.26702 4011 ft 199 kts 359°
2026-04-17 06:43 48.75482 21.26182 4583 ft 203 kts 334°
2026-04-17 06:43 48.76567 21.24793 5189 ft 209 kts 310°
2026-04-17 06:43 48.77145 21.22743 5757 ft 217 kts 283°
2026-04-17 06:44 48.77018 21.20432 6384 ft 227 kts 255°
2026-04-17 06:44 48.76141 21.18410 6930 ft 236 kts 224°
2026-04-17 06:44 48.74667 21.17293 7433 ft 242 kts 192°
2026-04-17 06:44 48.72971 21.17465 7767 ft 254 kts 158°
2026-04-17 06:45 48.71508 21.19061 8004 ft 270 kts 129°
2026-04-17 06:45 48.70302 21.21225 8750 ft 269 kts 129°
2026-04-17 06:45 48.69028 21.23339 9275 ft 282 kts 141°
2026-04-17 06:45 48.67233 21.24691 9620 ft 295 kts 168°
2026-04-17 06:46 48.65203 21.25308 10245 ft 301 kts 170°
2026-04-17 06:46 48.63078 21.25928 10472 ft 322 kts 171°
2026-04-17 06:46 48.60801 21.26593 10627 ft 344 kts 170°
2026-04-17 06:46 48.58406 21.27305 11045 ft 355 kts 170°
2026-04-17 06:47 48.55955 21.27955 11630 ft 360 kts 176°
2026-04-17 06:47 48.53454 21.27875 12234 ft 361 kts 191°
2026-04-17 06:47 48.51037 21.26898 12862 ft 360 kts 205°
2026-04-17 06:47 48.48844 21.25098 13501 ft 359 kts 219°
2026-04-17 06:48 48.46862 21.22788 14105 ft 362 kts 221°
2026-04-17 06:48 48.44871 21.20454 14709 ft 364 kts 221°
2026-04-17 06:48 48.42857 21.18107 15333 ft 367 kts 221°
2026-04-17 06:48 48.40830 21.15759 15965 ft 369 kts 221°
2026-04-17 06:49 48.38794 21.13404 16567 ft 371 kts 221°
2026-04-17 06:49 48.36740 21.11029 17178 ft 373 kts 221°
2026-04-17 06:49 48.34678 21.08641 17800 ft 375 kts 221°
2026-04-17 06:49 48.32601 21.06238 18406 ft 378 kts 221°
2026-04-17 06:50 48.30486 21.03790 18921 ft 380 kts 221°
2026-04-17 06:50 48.28384 21.01358 19422 ft 383 kts 222°
2026-04-17 06:50 48.26266 20.98908 19922 ft 386 kts 222°
2026-04-17 06:50 48.24134 20.96448 20417 ft 389 kts 222°
2026-04-17 06:51 48.21980 20.93974 20932 ft 391 kts 222°
2026-04-17 06:51 48.19809 20.91482 21409 ft 394 kts 222°
2026-04-17 06:51 48.17620 20.88974 21894 ft 397 kts 222°
2026-04-17 06:51 48.15412 20.86451 22380 ft 400 kts 222°
2026-04-17 06:52 48.13193 20.83913 22837 ft 403 kts 222°
2026-04-17 06:52 48.10955 20.81354 23267 ft 406 kts 222°
2026-04-17 06:52 48.08702 20.78778 23707 ft 409 kts 222°
2026-04-17 06:52 48.06432 20.76187 24077 ft 412 kts 222°
2026-04-17 06:53 48.04145 20.73575 24468 ft 414 kts 222°
2026-04-17 06:53 48.01853 20.70961 24837 ft 416 kts 222°
2026-04-17 06:53 47.99542 20.68333 25219 ft 418 kts 222°
2026-04-17 06:53 47.97219 20.65695 25597 ft 420 kts 222°
2026-04-17 06:54 47.94891 20.63054 25972 ft 422 kts 222°
2026-04-17 06:54 47.92546 20.60394 26334 ft 424 kts 222°
2026-04-17 06:54 47.90193 20.57724 26689 ft 426 kts 222°
2026-04-17 06:54 47.87830 20.55047 27047 ft 428 kts 222°
2026-04-17 06:55 47.85449 20.52356 27400 ft 430 kts 222°
2026-04-17 06:55 47.83060 20.49663 27743 ft 432 kts 222°
2026-04-17 06:55 47.80658 20.46960 28086 ft 434 kts 222°
2026-04-17 06:55 47.78242 20.44239 28430 ft 436 kts 222°
2026-04-17 06:56 47.75820 20.41507 28744 ft 438 kts 222°
2026-04-17 06:56 47.73384 20.38763 29046 ft 440 kts 222°
2026-04-17 06:56 47.70942 20.36018 29372 ft 442 kts 221°
2026-04-17 06:56 47.68480 20.33262 29702 ft 444 kts 221°
2026-04-17 06:57 47.66008 20.30498 30028 ft 446 kts 221°
2026-04-17 06:57 47.63526 20.27726 30328 ft 448 kts 221°
2026-04-17 06:57 47.61032 20.24944 30669 ft 447 kts 221°
2026-04-17 06:57 47.58547 20.22180 31041 ft 447 kts 221°
2026-04-17 06:58 47.56059 20.19418 31387 ft 446 kts 221°
2026-04-17 06:58 47.53574 20.16664 31744 ft 446 kts 221°
2026-04-17 06:58 47.51063 20.13877 32071 ft 446 kts 221°
2026-04-17 06:58 47.48588 20.11114 32407 ft 445 kts 222°
2026-04-17 06:59 47.46163 20.08283 32740 ft 444 kts 224°
2026-04-17 06:59 47.43779 20.05387 33050 ft 443 kts 224°
2026-04-17 06:59 47.41416 20.02458 33387 ft 443 kts 225°
2026-04-17 06:59 47.39062 19.99537 33703 ft 443 kts 225°
2026-04-17 07:00 47.36695 19.96626 34007 ft 443 kts 224°
2026-04-17 07:00 47.34317 19.93730 34289 ft 443 kts 224°
2026-04-17 07:00 47.31935 19.90857 34524 ft 443 kts 224°
2026-04-17 07:00 47.29539 19.87989 34771 ft 443 kts 224°
2026-04-17 07:01 47.27145 19.85131 35022 ft 443 kts 224°
2026-04-17 07:01 47.24752 19.82275 35261 ft 443 kts 224°
2026-04-17 07:01 47.22357 19.79409 35497 ft 444 kts 224°
2026-04-17 07:01 47.19966 19.76545 35736 ft 444 kts 224°
2026-04-17 07:02 47.17570 19.73679 35972 ft 444 kts 224°
2026-04-17 07:02 47.15175 19.70815 36141 ft 445 kts 224°
2026-04-17 07:02 47.12775 19.67944 36183 ft 444 kts 224°
2026-04-17 07:03 47.07978 19.62232 36188 ft 444 kts 223°
2026-04-17 07:03 47.03164 19.56532 36190 ft 445 kts 223°
2026-04-17 07:04 46.98352 19.50832 36190 ft 445 kts 223°
2026-04-17 07:04 46.93534 19.45134 36184 ft 445 kts 223°
2026-04-17 07:05 46.88709 19.39436 36191 ft 446 kts 223°
2026-04-17 07:05 46.83842 19.33723 36195 ft 447 kts 223°
2026-04-17 07:06 46.78983 19.28035 36208 ft 447 kts 223°
2026-04-17 07:06 46.74130 19.22351 36204 ft 448 kts 223°
2026-04-17 07:07 46.69273 19.16662 36200 ft 448 kts 223°
2026-04-17 07:07 46.64407 19.10986 36194 ft 448 kts 223°
2026-04-17 07:08 46.59530 19.05325 36191 ft 449 kts 223°
2026-04-17 07:08 46.54642 18.99660 36191 ft 449 kts 223°
2026-04-17 07:09 46.49751 18.94000 36193 ft 450 kts 223°
2026-04-17 07:09 46.44849 18.88354 36193 ft 450 kts 223°
2026-04-17 07:10 46.39941 18.82718 36189 ft 450 kts 223°
2026-04-17 07:10 46.35035 18.77086 36188 ft 450 kts 223°
2026-04-17 07:11 46.30954 18.72393 36186 ft 451 kts 223°
2026-04-17 07:11 46.26003 18.66719 36184 ft 451 kts 223°
2026-04-17 07:12 46.21069 18.61098 36182 ft 452 kts 223°
2026-04-17 07:12 46.16125 18.55485 36185 ft 453 kts 223°
2026-04-17 07:13 46.11171 18.49867 36180 ft 453 kts 223°
2026-04-17 07:13 46.06219 18.44250 36185 ft 454 kts 223°
2026-04-17 07:14 46.01254 18.38626 36186 ft 454 kts 223°
2026-04-17 07:14 45.96276 18.33013 36191 ft 455 kts 222°
2026-04-17 07:15 45.91284 18.27412 36195 ft 456 kts 222°
2026-04-17 07:15 45.86290 18.21804 36194 ft 456 kts 222°
2026-04-17 07:16 45.81291 18.16206 36197 ft 456 kts 222°
2026-04-17 07:16 45.76558 18.10224 36202 ft 452 kts 230°
2026-04-17 07:17 45.72116 18.03845 36206 ft 452 kts 229°
2026-04-17 07:17 45.65419 17.94320 36199 ft 453 kts 229°
2026-04-17 07:18 45.60942 17.87966 36196 ft 453 kts 229°
2026-04-17 07:18 45.56437 17.81573 36197 ft 454 kts 229°
2026-04-17 07:19 45.51956 17.75218 36191 ft 454 kts 229°
2026-04-17 07:19 45.47464 17.68877 36195 ft 455 kts 229°
2026-04-17 07:20 45.42961 17.62548 36197 ft 455 kts 229°
2026-04-17 07:20 45.38444 17.56216 36194 ft 456 kts 229°
2026-04-17 07:21 45.33929 17.49885 36197 ft 456 kts 229°
2026-04-17 07:21 45.29412 17.43560 36199 ft 456 kts 229°
2026-04-17 07:22 45.24886 17.37249 36199 ft 456 kts 228°
2026-04-17 07:22 45.20350 17.30948 36197 ft 457 kts 228°
2026-04-17 07:23 45.15807 17.24640 36198 ft 457 kts 228°
2026-04-17 07:23 45.11254 17.18344 36198 ft 458 kts 228°
2026-04-17 07:24 45.06693 17.12045 36202 ft 458 kts 228°
2026-04-17 07:24 45.02128 17.05742 36203 ft 459 kts 228°
2026-04-17 07:25 44.97564 16.99444 36204 ft 459 kts 228°
2026-04-17 07:25 44.92998 16.93157 36204 ft 459 kts 228°
2026-04-17 07:26 44.88413 16.86876 36204 ft 459 kts 228°
2026-04-17 07:26 44.83791 16.80559 36203 ft 460 kts 228°
2026-04-17 07:27 44.79200 16.74288 36201 ft 460 kts 228°
2026-04-17 07:27 44.74598 16.68030 36201 ft 460 kts 227°
2026-04-17 07:28 44.69979 16.61782 36199 ft 461 kts 227°
2026-04-17 07:28 44.65371 16.55528 36195 ft 461 kts 227°
2026-04-17 07:29 44.60759 16.49282 36195 ft 461 kts 227°
2026-04-17 07:29 44.56139 16.43040 36192 ft 461 kts 227°
2026-04-17 07:30 44.51509 16.36806 36187 ft 462 kts 227°
2026-04-17 07:30 44.46866 16.30582 36183 ft 462 kts 227°
2026-04-17 07:31 44.42219 16.24376 36174 ft 462 kts 227°
2026-04-17 07:31 44.37569 16.18165 36169 ft 462 kts 227°
2026-04-17 07:32 44.32921 16.11964 36164 ft 462 kts 227°
2026-04-17 07:32 44.28262 16.05773 36153 ft 462 kts 227°
2026-04-17 07:33 44.23599 15.99590 36143 ft 462 kts 226°
2026-04-17 07:33 44.18936 15.93409 36131 ft 462 kts 226°
2026-04-17 07:34 44.14273 15.87249 36125 ft 462 kts 226°
2026-04-17 07:34 44.09570 15.81061 36119 ft 462 kts 226°
2026-04-17 07:35 44.04898 15.74911 36114 ft 462 kts 226°
2026-04-17 07:35 44.00226 15.68779 36114 ft 462 kts 226°
2026-04-17 07:36 43.95545 15.62663 36110 ft 462 kts 226°
2026-04-17 07:36 43.90867 15.56555 36111 ft 462 kts 226°
2026-04-17 07:37 43.86185 15.50447 36101 ft 462 kts 226°
2026-04-17 07:37 43.81491 15.44343 36103 ft 463 kts 226°
2026-04-17 07:38 43.76786 15.38248 36110 ft 463 kts 226°
2026-04-17 07:38 43.72079 15.32156 36100 ft 464 kts 226°
2026-04-17 07:39 43.67369 15.26070 36103 ft 464 kts 225°
2026-04-17 07:39 43.62648 15.19989 36108 ft 464 kts 225°
2026-04-17 07:40 43.57922 15.13916 36118 ft 465 kts 225°
2026-04-17 07:40 43.53179 15.07841 36113 ft 465 kts 225°
2026-04-17 07:41 43.48441 15.01776 36119 ft 465 kts 225°
2026-04-17 07:41 43.43693 14.95705 36126 ft 466 kts 225°
2026-04-17 07:42 43.38909 14.89612 36125 ft 466 kts 225°
2026-04-17 07:42 43.34144 14.83565 36131 ft 466 kts 225°
2026-04-17 07:43 43.30187 14.78551 36130 ft 466 kts 225°
2026-04-17 07:43 43.25416 14.72512 36132 ft 466 kts 225°
2026-04-17 07:44 43.20650 14.66487 36133 ft 466 kts 225°
2026-04-17 07:44 43.15874 14.60468 36136 ft 466 kts 225°
2026-04-17 07:45 43.11096 14.54462 36135 ft 466 kts 225°
2026-04-17 07:45 43.06310 14.48467 36133 ft 467 kts 224°
2026-04-17 07:46 43.01516 14.42466 36137 ft 467 kts 224°
2026-04-17 07:46 42.96721 14.36477 36138 ft 467 kts 224°
2026-04-17 07:47 42.91922 14.30495 36140 ft 467 kts 224°
2026-04-17 07:47 42.87088 14.24482 36136 ft 468 kts 224°
2026-04-17 07:48 42.82265 14.18497 36084 ft 469 kts 224°
2026-04-17 07:48 42.79838 14.15489 35221 ft 477 kts 224°
2026-04-17 07:48 42.77370 14.12435 34469 ft 480 kts 224°
2026-04-17 07:49 42.74891 14.09375 33715 ft 483 kts 224°
2026-04-17 07:49 42.72402 14.06307 33041 ft 482 kts 224°
2026-04-17 07:49 42.69919 14.03252 32487 ft 480 kts 224°
2026-04-17 07:49 42.67446 14.00232 31985 ft 476 kts 223°
2026-04-17 07:50 42.64971 13.97269 31497 ft 473 kts 223°
2026-04-17 07:50 42.62502 13.94353 31017 ft 469 kts 223°
2026-04-17 07:50 42.60040 13.91460 30528 ft 465 kts 223°
2026-04-17 07:50 42.57753 13.88412 30024 ft 458 kts 234°
2026-04-17 07:51 42.56096 13.84790 29469 ft 448 kts 249°
2026-04-17 07:51 42.55049 13.80857 28905 ft 441 kts 255°
2026-04-17 07:51 42.54094 13.76922 28333 ft 438 kts 255°
2026-04-17 07:51 42.53147 13.73008 27789 ft 435 kts 255°
2026-04-17 07:52 42.52211 13.69129 27279 ft 432 kts 255°
2026-04-17 07:52 42.51281 13.65281 26768 ft 428 kts 255°
2026-04-17 07:52 42.50356 13.61459 26271 ft 425 kts 255°
2026-04-17 07:52 42.49436 13.57672 25779 ft 422 kts 254°
2026-04-17 07:53 42.48518 13.53910 25319 ft 419 kts 254°
2026-04-17 07:53 42.47604 13.50187 24864 ft 416 kts 254°
2026-04-17 07:53 42.46692 13.46484 24422 ft 413 kts 254°
2026-04-17 07:53 42.45788 13.42806 24001 ft 410 kts 254°
2026-04-17 07:54 42.44891 13.39151 23564 ft 408 kts 254°
2026-04-17 07:54 42.44001 13.35521 23076 ft 405 kts 254°
2026-04-17 07:54 42.43117 13.31919 22587 ft 402 kts 254°
2026-04-17 07:54 42.42231 13.28335 22120 ft 400 kts 253°
2026-04-17 07:55 42.41347 13.24776 21671 ft 397 kts 253°
2026-04-17 07:55 42.40460 13.21195 21209 ft 395 kts 253°
2026-04-17 07:55 42.39588 13.17685 20759 ft 393 kts 254°
2026-04-17 07:55 42.38718 13.14186 20281 ft 391 kts 253°
2026-04-17 07:56 42.37855 13.10717 19829 ft 388 kts 254°
2026-04-17 07:56 42.36995 13.07265 19379 ft 386 kts 253°
2026-04-17 07:56 42.36141 13.03841 18932 ft 384 kts 253°
2026-04-17 07:56 42.35289 13.00433 18462 ft 382 kts 253°
2026-04-17 07:57 42.34441 12.97041 17984 ft 379 kts 254°
2026-04-17 07:57 42.33598 12.93673 17512 ft 376 kts 253°
2026-04-17 07:57 42.32764 12.90339 17058 ft 373 kts 253°
2026-04-17 07:57 42.31934 12.87035 16611 ft 369 kts 253°
2026-04-17 07:58 42.31110 12.83760 16161 ft 366 kts 253°
2026-04-17 07:58 42.30291 12.80524 15715 ft 363 kts 253°
2026-04-17 07:58 42.29475 12.77313 15290 ft 360 kts 253°
2026-04-17 07:58 42.28667 12.74127 14865 ft 356 kts 253°
2026-04-17 07:59 42.27871 12.70978 14431 ft 353 kts 253°
2026-04-17 07:59 42.27083 12.67856 14037 ft 350 kts 252°
2026-04-17 07:59 42.26299 12.64765 13564 ft 347 kts 252°
2026-04-17 07:59 42.25522 12.61695 13102 ft 344 kts 253°
2026-04-17 08:00 42.24760 12.58681 12832 ft 330 kts 253°
2026-04-17 08:00 42.24036 12.55834 12613 ft 314 kts 253°
2026-04-17 08:00 42.23335 12.53083 12153 ft 307 kts 253°
2026-04-17 08:00 42.22644 12.50375 11608 ft 304 kts 253°
2026-04-17 08:01 42.21956 12.47687 11078 ft 302 kts 252°
2026-04-17 08:01 42.21270 12.45024 10536 ft 300 kts 252°
2026-04-17 08:01 42.20591 12.42378 10027 ft 298 kts 252°
2026-04-17 08:01 42.19920 12.39762 9650 ft 288 kts 253°
2026-04-17 08:02 42.19285 12.37288 9511 ft 272 kts 253°
2026-04-17 08:02 42.18676 12.34918 9180 ft 264 kts 253°
2026-04-17 08:02 42.18091 12.32595 8746 ft 261 kts 254°
2026-04-17 08:02 42.17558 12.30350 8362 ft 259 kts 255°
2026-04-17 08:03 42.17026 12.28037 7785 ft 257 kts 255°
2026-04-17 08:03 42.16502 12.25742 7194 ft 255 kts 255°
2026-04-17 08:03 42.15978 12.23453 6632 ft 256 kts 255°
2026-04-17 08:03 42.15329 12.21208 6060 ft 254 kts 238°
2026-04-17 08:04 42.14148 12.19460 5451 ft 253 kts 214°
2026-04-17 08:04 42.12570 12.18483 4877 ft 249 kts 191°
2026-04-17 08:04 42.10885 12.17989 4264 ft 249 kts 191°
2026-04-17 08:04 42.09285 12.17515 3931 ft 249 kts 191°
2026-04-17 08:05 42.07600 12.17067 3735 ft 245 kts 182°
2026-04-17 08:05 42.05926 12.17201 3592 ft 238 kts 165°
2026-04-17 08:05 42.04358 12.17837 3246 ft 236 kts 160°
2026-04-17 08:05 42.02817 12.18493 3216 ft 226 kts 161°
2026-04-17 08:06 42.01340 12.19113 3228 ft 221 kts 160°
2026-04-17 08:06 41.99927 12.19707 3236 ft 203 kts 161°
2026-04-17 08:06 41.98616 12.20259 3062 ft 193 kts 161°
2026-04-17 08:06 41.97344 12.20795 2829 ft 190 kts 160°
2026-04-17 08:07 41.96120 12.21308 2596 ft 179 kts 161°
2026-04-17 08:07 41.94953 12.21799 2362 ft 172 kts 160°
2026-04-17 08:07 41.93832 12.22272 2151 ft 167 kts 159°
2026-04-17 08:07 41.92749 12.22726 1945 ft 158 kts 160°
2026-04-17 08:08 41.91712 12.23163 1722 ft 154 kts 160°
2026-04-17 08:08 41.90702 12.23587 1518 ft 152 kts 161°
2026-04-17 08:08 41.89696 12.24009 1306 ft 151 kts 160°
2026-04-17 08:08 41.88693 12.24421 922 ft 150 kts 161°
2026-04-17 08:09 41.87698 12.24839 725 ft 150 kts 161°
2026-04-17 08:09 41.86704 12.25262 534 ft 149 kts 160°
2026-04-17 08:09 41.85717 12.25679 317 ft 149 kts 161°
2026-04-17 08:09 41.84728 12.26090 100 ft 148 kts 160°
2026-04-17 08:10 41.83770 12.26496 24 ft 133 kts 160°
2026-04-17 08:10 41.83007 12.26820 12 ft 92 kts 163°
2026-04-17 08:10 41.82550 12.27011 12 ft 52 kts 162°
2026-04-17 08:10 41.82252 12.27122 10 ft 33 kts 169°
2026-04-17 08:11 41.82067 12.27134 11 ft 26 kts 187°
2026-04-17 08:11 41.81901 12.27091 11 ft 24 kts 191°
2026-04-17 08:11 41.81759 12.27051 11 ft 15 kts 188°
2026-04-17 08:11 41.81651 12.27067 12 ft 16 kts 168°
2026-04-17 08:12 41.81538 12.27108 12 ft 18 kts 163°
2026-04-17 08:12 41.81410 12.27161 12 ft 21 kts 162°
2026-04-17 08:12 41.81270 12.27220 12 ft 22 kts 163°
2026-04-17 08:12 41.81124 12.27281 12 ft 22 kts 162°
2026-04-17 08:13 41.80981 12.27340 13 ft 16 kts 165°
2026-04-17 08:13 41.80865 12.27341 12 ft 17 kts 189°
2026-04-17 08:13 41.80742 12.27312 13 ft 18 kts 191°
2026-04-17 08:14 41.80602 12.27031 16 ft 20 kts 250°
2026-04-17 08:14 41.80553 12.26853 14 ft 21 kts 250°
2026-04-17 08:14 41.80504 12.26670 15 ft 21 kts 250°
2026-04-17 08:14 41.80452 12.26484 15 ft 22 kts 250°
2026-04-17 08:15 41.80396 12.26291 15 ft 23 kts 249°
2026-04-17 08:15 41.80347 12.26127 15 ft 14 kts 229°
2026-04-17 08:15 41.80257 12.26060 14 ft 16 kts 204°
2026-04-17 08:15 41.80155 12.25997 16 ft 17 kts 205°
2026-04-17 08:16 41.80045 12.25930 14 ft 18 kts 204°
2026-04-17 08:16 41.79927 12.25859 15 ft 19 kts 204°
2026-04-17 08:16 41.79854 12.25807 14 ft 7 kts 221°
2026-04-17 08:16 41.79809 12.25772 14 ft 8 kts 205°
2026-04-17 08:17 41.79772 12.25749 14 ft 9 kts 205°
2026-04-17 08:17 41.79715 12.25714 14 ft 6 kts 205°
2026-04-17 08:17 41.79713 12.25679 14 ft 4 kts 284°
2026-04-17 08:17 41.79724 12.25648 14 ft 1 kts 296°
2026-04-17 08:18 41.79725 12.25644 14 ft 0 kts 296°